Regional Weather Roundup
Issued by NWS

Home | Current Version | Previous Version | Text Only | Print | Product List | Glossary Off
Versions: 1 2 3 4 5 6 7 8 9 10 11 12 13 14 15 16 17 18 19 20 21 22 23 24 25 26 27 28 29 30 31 32 33 34 35 36 37 38 39 40 41 42 43 44 45 46 47 48 49 50

000
ASUS43 KOAX 242102
RWRNE

WEATHER ROUNDUP FOR NEBRASKA
NATIONAL WEATHER SERVICE OMAHA NE
400 PM CDT FRI OCT 24 2014

NOTES: SATELLITE DATA IS BEING USED TO AUGMENT CLOUD COVER ABOVE
       12000 FEET.
       "FAIR" INDICATES FEW OR NO CLOUDS BELOW 12,000 FEET WITH NO
       SIGNIFICANT WEATHER AND/OR OBSTRUCTIONS TO VISIBILITY.

  * THESE STATIONS DO NOT REPORT WEATHER SUCH AS RAIN...SNOW OR FOG.

NEZ001>004-019>022-054>056-242200-
NEBRASKA PANHANDLE

CITY           SKY/WX    TMP DP  RH WIND       PRES   REMARKS
SCOTTSBLUFF    SUNNY     82 N/A N/A NW21G31   30.02F
ALLIANCE       MOSUNNY   80  35  19 W15       30.01F
CHADRON        SUNNY     78  32  18 CALM      29.98F
KIMBALL        SUNNY     81  26  13 NW15G23   30.08S
SIDNEY         SUNNY     82  30  15 NW12G21   30.07S
$$

NEZ057>060-069>072-079>082-242200-
SOUTHWEST NEBRASKA

CITY           SKY/WX    TMP DP  RH WIND       PRES   REMARKS
NORTH PLATTE   SUNNY     84  32  15 W12       29.97S
IMPERIAL       SUNNY     84  31  14 N15       30.02F
LEXINGTON      SUNNY     84  32  15 W12       29.97R
MCCOOK         SUNNY     88  32  13 W10G17    29.98F
OGALLALA       SUNNY     84  33  16 W10G18    30.01S
$$

NEZ005>010-023>029-035>040-094-242200-
NORTH CENTRAL NEBRASKA

CITY           SKY/WX    TMP DP  RH WIND       PRES   REMARKS
VALENTINE      SUNNY     81  33  17 NW5       29.95S
AINSWORTH      MOSUNNY   76  32  20 CALM      29.97R
BROKEN BOW     SUNNY     84  37  18 NW10      29.95S
O`NEILL        PTSUNNY   76  36  23 CALM      29.95R
ORD            MOSUNNY   78  40  25 NE3       29.93F
THEDFORD       SUNNY     82  34  17 N8        29.98R
$$

NEZ041-046>049-061>064-073>077-083>087-242200-
SOUTH CENTRAL NEBRASKA

CITY           SKY/WX    TMP DP  RH WIND       PRES   REMARKS
GRAND ISLAND   MOSUNNY   79  47  32 NW6       29.94
AURORA         SUNNY     77  44  31 NW5       29.93R
HASTINGS       SUNNY     78  45  30 W7        29.94S
HEBRON         MOSUNNY   80  52  37 W6        29.92S
HOLDREGE       SUNNY     84  32  15 NW9       29.96S
KEARNEY *      SUNNY     82  39  21 W7        29.95S
YORK           MOSUNNY   75  50  41 NW3       29.92S
$$

NEZ011>018-030>034-042>045-242200-
NORTHEAST NEBRASKA

CITY           SKY/WX    TMP DP  RH WIND       PRES   REMARKS
NORFOLK        MOSUNNY   72  46  39 CALM      29.92S
ALBION         PTSUNNY   73  39  28 CALM      29.94R
BLAIR          CLOUDY    76  55  48 SW5       29.90S
COLUMBUS *     MOSUNNY   73  50  43 N5        29.93R
FREMONT        PTSUNNY   74  52  44 CALM      29.91R
TEKAMAH        PTSUNNY   76  50  40 W6        29.89S
WAYNE          SUNNY     77  39  25 N3        29.91S
$$

NEZ050>053-065>068-078-088>093-242200-
SOUTHEAST NEBRASKA

CITY           SKY/WX    TMP DP  RH WIND       PRES   REMARKS
LINCOLN        PTSUNNY   74  57  55 SW6       29.91S
OMAHA EPPLEY   CLOUDY    75  58  55 CALM      29.90S
BEATRICE       MOSUNNY   77  60  55 W10       29.91S
FALLS CITY     PTSUNNY   79  63  57 SW15      29.89F
NEBRASKA CITY  MOSUNNY   75  56  51 W7        29.90S
PLATTSMOUTH    MOSUNNY   75  57  54 SW3       29.90S
$$

NEZ044-045-051>053-067-242200-
OMAHA AREA

CITY           SKY/WX    TMP DP  RH WIND       PRES   REMARKS
OMAHA EPPLEY   CLOUDY    75  58  55 CALM      29.90S
BLAIR          CLOUDY    76  55  48 SW5       29.90S
FREMONT        PTSUNNY   74  52  44 CALM      29.91R
OFFUTT AFB     PTSUNNY   75  62  62 SW5       29.90R
PLATTSMOUTH    MOSUNNY   75  57  54 SW3       29.90S
WAHOO          FAIR      76  49  38 N3        29.91R
$$



USA.gov is the U.S. government's official web portal to all federal, state and local government web resources and services.